Time,TemperatureF,DewpointF,PressureIn,WindDirection,WindDirectionDegrees,WindSpeedMPH,WindSpeedGustMPH,Humidity,HourlyPrecipIn,Conditions,Clouds,dailyrainin,SoftwareType,DateUTC
2015-05-03 00:01:00,52.0,35.0,30.62,NE,45,0.0,0.0,53,-99.99,,,-99.99,,2015-05-03 07:01:00,
2015-05-03 00:21:00,52.0,36.0,30.62,NE,45,0.0,0.0,54,-99.99,,,-99.99,,2015-05-03 07:21:00,
2015-05-03 00:31:00,52.0,36.0,30.61,NE,45,0.0,0.0,55,-99.99,,,-99.99,,2015-05-03 07:31:00,
2015-05-03 01:01:00,51.0,36.0,30.62,NE,45,0.0,0.0,57,-99.99,,,-99.99,,2015-05-03 08:01:00,
2015-05-03 01:11:00,50.0,36.0,30.62,NE,45,0.0,0.0,58,-99.99,,,-99.99,,2015-05-03 08:11:00,
2015-05-03 01:31:00,50.0,38.0,30.62,NE,45,0.0,0.0,64,-99.99,,,-99.99,,2015-05-03 08:31:00,
2015-05-03 01:41:00,50.0,37.0,30.62,WSW,247,0.0,0.0,61,-99.99,,,-99.99,,2015-05-03 08:41:00,
2015-05-03 02:01:00,50.0,38.0,30.62,WSW,247,0.0,0.0,64,-99.99,,,-99.99,,2015-05-03 09:01:00,
2015-05-03 02:11:00,50.0,39.0,30.62,WSW,247,0.0,0.0,66,-99.99,,,-99.99,,2015-05-03 09:11:00,
2015-05-03 02:21:00,50.0,39.0,30.62,SW,225,0.0,0.0,67,-99.99,,,-99.99,,2015-05-03 09:21:00,
2015-05-03 02:41:00,50.0,38.0,30.61,SW,225,0.0,0.0,62,-99.99,,,-99.99,,2015-05-03 09:41:00,
2015-05-03 03:01:00,49.0,37.0,30.60,WSW,245,0.0,0.0,62,-99.99,,,-99.99,,2015-05-03 10:01:00,
2015-05-03 03:21:00,49.0,37.0,30.60,SW,225,0.0,0.0,63,-99.99,,,-99.99,,2015-05-03 10:21:00,
2015-05-03 03:41:00,48.0,36.0,30.61,SW,234,0.0,0.0,63,-99.99,,,-99.99,,2015-05-03 10:41:00,
2015-05-03 04:11:00,48.0,36.0,30.61,WSW,247,0.0,0.0,64,-99.99,,,-99.99,,2015-05-03 11:11:00,
2015-05-03 04:21:00,48.0,36.0,30.61,WSW,247,0.0,0.0,64,-99.99,,,-99.99,,2015-05-03 11:21:00,
2015-05-03 06:21:00,48.0,38.0,30.60,NE,45,0.0,0.0,69,-99.99,,,-99.99,,2015-05-03 13:21:00,
2015-05-03 06:41:00,48.0,38.0,30.61,NE,45,0.0,0.0,68,-99.99,,,-99.99,,2015-05-03 13:41:00,
2015-05-03 07:01:00,49.0,39.0,30.60,NE,45,0.0,0.0,68,-99.99,,,-99.99,,2015-05-03 14:01:00,
2015-05-03 07:11:00,49.0,39.0,30.60,NE,45,0.0,0.0,68,-99.99,,,-99.99,,2015-05-03 14:11:00,
2015-05-03 07:21:00,49.0,39.0,30.60,NE,45,0.0,0.0,68,-99.99,,,-99.99,,2015-05-03 14:21:00,
2015-05-03 07:31:00,50.0,39.0,30.61,NE,45,0.0,0.0,67,-99.99,,,-99.99,,2015-05-03 14:31:00,
2015-05-03 07:41:00,51.0,38.0,30.61,NE,45,0.0,0.0,62,-99.99,,,-99.99,,2015-05-03 14:41:00,
2015-05-03 08:01:00,51.0,38.0,30.61,NE,45,0.0,0.0,62,-99.99,,,-99.99,,2015-05-03 15:01:00,
2015-05-03 08:31:00,53.0,41.0,30.62,NE,45,0.0,0.0,64,-99.99,,,-99.99,,2015-05-03 15:31:00,
2015-05-03 08:41:00,53.0,41.0,30.62,NE,45,0.0,0.0,63,-99.99,,,-99.99,,2015-05-03 15:41:00,
2015-05-03 09:41:00,55.0,43.0,30.62,NE,45,0.0,0.0,64,-99.99,,,-99.99,,2015-05-03 16:41:00,